Location: Gandikunta
(16.3784°N, 80.8378°E)
Time: 05:13:54
(UTC+00:00)

Hubble Space Telescope - Visible Passes

Search period start: 14 May 2026 00:00
Search period end: 24 May 2026 00:00
Orbit: 473 x 476 km, 28.5° (Epoch: 13 May)

Date Brightness Start Highest point End Pass type
(mag) Time Alt. Az. Time Alt. Az. Time Alt. Az.
16 May 2.2 23:27:40 10° SSW 23:30:46 24° SSE 23:33:52 10° E visible
17 May 2.2 22:57:33 17° S 22:59:16 24° SSE 23:02:21 10° E visible
18 May 2.2 22:27:52 24° SSE 22:27:52 24° SSE 22:30:49 10° E visible
19 May 3.1 21:58:08 16° ESE 21:58:08 16° ESE 21:59:16 10° E visible
19 May 0.8 23:32:09 10° WSW 23:35:50 58° NNW 23:39:31 10° ENE visible
20 May 0.8 23:02:21 25° W 23:04:17 59° NNW 23:07:59 10° ENE visible
21 May 0.6 22:32:31 58° NW 22:32:45 60° NNW 22:36:27 10° ENE visible
22 May 2.1 22:02:37 34° NE 22:02:37 34° NE 22:04:54 10° ENE visible
22 May 2.7 23:38:30 10° WNW 23:41:12 19° NNW 23:43:55 10° NNE visible
23 May 3.6 21:32:41 14° NE 21:32:41 14° NE 21:33:21 10° ENE visible
23 May 2.7 23:06:55 10° WNW 23:09:38 19° NNW 23:12:22 10° NNE visible
